Weather History for Al Udeid, Qatar

Change the Weather History Date:

Sunday, January 20, 2013

  Actual Average Record
Temperature  
Mean Temperature 62 °F -  
Max Temperature 75 °F - - ()
Min Temperature 50 °F - - ()
Degree Days  
Heating Degree Days 2    
Growing Degree Days 12 (Base 50)    
Moisture  
Dew Point 46 °F    
Average Humidity 58    
Maximum Humidity 83    
Minimum Humidity 25    
Precipitation  
Precipitation 0.00 in - - ()
Sea Level Pressure  
Sea Level Pressure 30.12 in    
Wind  
Wind Speed 3 mph ()    
Max Wind Speed 8 mph    
Max Gust Speed -    
Visibility 6.2 miles    
Events      
T = Trace of Precipitation, MM = Missing Value Source: Averaged Metar Reports

Daily Weather History Graph

Daily Weather History Graph

Search for Another Location

Airport:

Trip Planner

Search our weather history database for the weather conditions in past years. The results will help you decide how hot, cold, wet, or windy it might be!

Date:

Astronomy

Jan. 20, 2013 Rise Set
Actual Time 6:21 AM AST 5:10 PM AST
Civil Twilight 5:56 AM AST 5:34 PM AST
Nautical Twilight 5:29 AM AST 6:02 PM AST
Astronomical Twilight 5:01 AM AST 6:30 PM AST
Moon 11:53 AM AST (1/20) 12:36 AM AST (1/20)
Length of Visible Light 11h 37m
Length of Day
10h 48m
Waxing Gibbous, 63% of the Moon is Illuminated
Jan 20
Waxing Gibbous
Jan 27
Full
Feb 3
Last Quarter
Feb 10
New
Feb 17
First Quarter

Hourly Weather History & Observations

Time (AST) Temp. Dew Point Humidity Pressure Visibility Wind Dir Wind Speed Gust Speed Precip Events Conditions
12:55 AM 54.9 °F 46.9 °F 75% 30.15 in 6.2 mi Calm Calm - N/A   Clear
1:55 AM 55.6 °F 47.1 °F 73% 30.14 in 6.2 mi East 3.5 mph - N/A   Clear
2:55 AM 51.3 °F 44.4 °F 77% 30.13 in 6.2 mi South 3.5 mph - N/A   Clear
3:55 AM 53.2 °F 46.0 °F 77% 30.11 in 6.2 mi Calm Calm - N/A   Clear
4:55 AM 51.6 °F 46.8 °F 83% 30.12 in 6.2 mi SSE 3.5 mph - N/A   Clear
5:55 AM 51.4 °F 45.5 °F 80% 30.14 in 6.2 mi SE 3.5 mph - N/A   Clear
6:55 AM 50.9 °F 45.3 °F 81% 30.15 in 6.2 mi Calm Calm - N/A   Clear
7:55 AM 55.4 °F 50.2 °F 83% 30.17 in 6.2 mi SSE 4.6 mph - N/A   Clear
8:55 AM 61.0 °F 52.3 °F 73% 30.19 in 6.2 mi South 4.6 mph - N/A   Clear
9:55 AM 64.9 °F 54.3 °F 68% 30.19 in 6.2 mi SSE 6.9 mph - N/A   Clear
10:55 AM 69.1 °F 48.6 °F 48% 30.17 in 6.2 mi SSE 8.1 mph - N/A   Clear
11:55 AM 71.8 °F 42.8 °F 35% 30.14 in 6.2 mi Variable 5.8 mph - N/A   Partly Cloudy
12:55 PM 73.8 °F 39.7 °F 29% 30.10 in 6.2 mi Variable 4.6 mph - N/A   Mostly Cloudy
1:55 PM 74.3 °F 39.2 °F 28% 30.09 in 6.2 mi SSW 4.6 mph - N/A   Partly Cloudy
2:55 PM 74.7 °F 38.8 °F 27% 30.08 in 6.2 mi SW 3.5 mph - N/A   Partly Cloudy
3:51 PM 75.2 °F 37.4 °F 25% 30.08 in 6.2 mi West 3.5 mph - N/A   Partly Cloudy
3:55 PM 74.7 °F 36.3 °F 25% 30.08 in 6.2 mi WSW 4.6 mph - N/A   Partly Cloudy
4:31 PM 73.4 °F 42.8 °F 33% 30.09 in 6.2 mi SW 2.3 mph - N/A   Partly Cloudy
4:55 PM 72.3 °F 43.0 °F 35% 30.10 in 6.2 mi SSE 3.5 mph - N/A   Partly Cloudy
5:55 PM 66.7 °F 46.0 °F 47% 30.11 in 6.2 mi ESE 8.1 mph - N/A   Clear
6:55 PM 64.8 °F 47.8 °F 54% 30.11 in 6.2 mi ESE 6.9 mph - N/A   Clear
7:55 PM 62.8 °F 49.5 °F 62% 30.12 in 6.2 mi East 5.8 mph - N/A   Clear
8:55 PM 61.5 °F 52.2 °F 71% 30.12 in 6.2 mi ESE 6.9 mph - N/A   Clear
9:55 PM 61.3 °F 54.1 °F 77% 30.11 in 6.2 mi East 4.6 mph - N/A   Clear
10:55 PM 61.0 °F 54.1 °F 78% 30.11 in 6.2 mi SE 5.8 mph - N/A   Clear
11:55 PM 60.1 °F 52.7 °F 77% 30.10 in 6.2 mi Calm Calm - N/A   Clear